Station Historical Data
Daily Summary for July 25, 2017 Units:  English    Metric   Both
« Previous Day
Next Day »
Daily Weekly Monthly Yearly Custom
  High: Low: Average:
Temperature: 70.4 °F 58.4 °F 63.8 °F
Dew Point: 58.8 °F 54.5 °F 57 °F
Humidity: 91% 64% 79%
Wind Speed: 9.0mph 0.0mph 1.6mph
Wind Gust: 14.0mph - -
Wind- - South
Pressure: 30.23 in 29.96 in -
Precipitation: 0.02 in    
Historical Graphs
 
 
Tabular Data for July 25, 2017
Time Temperature Dew Point Pressure Wind Wind Speed Wind Gust Humidity Rainfall Rate (Hourly)
00:00 62.1 °F 58.8 °F 29.96 in WNW 1.0 mph 7.0 mph 89% 0.00 in
00:05 62.1 °F 58.8 °F 29.96 in NW 2.0 mph 7.0 mph 89% 0.00 in
00:10 62.0 °F 58.7 °F 29.96 in NNW 2.0 mph 5.0 mph 89% 0.00 in
00:15 62.1 °F 58.8 °F 29.96 in NW 3.0 mph 5.0 mph 89% 0.00 in
00:20 62.1 °F 58.8 °F 29.97 in Calm   4.0 mph 89% 0.00 in
00:25 62.1 °F 58.8 °F 29.97 in NW 2.0 mph 4.0 mph 89% 0.00 in
00:30 62.0 °F 58.7 °F 29.97 in NW 2.0 mph 5.0 mph 89% 0.00 in
00:35 62.1 °F 58.5 °F 29.97 in NW 3.0 mph 8.0 mph 88% 0.00 in
00:40 61.9 °F 58.3 °F 29.97 in WNW 1.0 mph 9.0 mph 88% 0.00 in
00:45 61.9 °F 58.0 °F 29.97 in NNW 3.0 mph 7.0 mph 87% 0.00 in
00:50 61.9 °F 58.3 °F 29.98 in NW 3.0 mph 7.0 mph 88% 0.00 in
00:55 61.9 °F 58.3 °F 29.98 in NW 1.0 mph 5.0 mph 88% 0.00 in
01:00 61.9 °F 58.3 °F 29.98 in WNW 1.0 mph 3.0 mph 88% 0.00 in
01:05 62.0 °F 58.4 °F 29.98 in Calm   4.0 mph 88% 0.00 in
01:10 62.0 °F 58.4 °F 29.98 in Calm   3.0 mph 88% 0.00 in
01:15 62.0 °F 58.4 °F 29.99 in Calm   4.0 mph 88% 0.00 in
01:20 62.0 °F 58.4 °F 29.99 in NW 1.0 mph 4.0 mph 88% 0.00 in
01:25 62.0 °F 58.4 °F 29.99 in NNW 1.0 mph 7.0 mph 88% 0.00 in
01:30 61.9 °F 58.3 °F 29.99 in NNW 3.0 mph 7.0 mph 88% 0.00 in
01:35 61.8 °F 58.2 °F 29.99 in NNW 3.0 mph 7.0 mph 88% 0.00 in
01:40 61.7 °F 58.1 °F 29.99 in NW 1.0 mph 3.0 mph 88% 0.00 in
01:45 61.7 °F 58.1 °F 29.99 in NW 1.0 mph 2.0 mph 88% 0.00 in
01:50 61.7 °F 58.1 °F 30.00 in Calm   2.0 mph 88% 0.00 in
01:55 61.7 °F 58.1 °F 30.00 in Calm   2.0 mph 88% 0.00 in
02:00 61.8 °F 58.2 °F 30.00 in NNW 1.0 mph 3.0 mph 88% 0.00 in
02:05 61.8 °F 58.2 °F 30.00 in North 8.0 mph 8.0 mph 88% 0.00 in
02:10 61.8 °F 58.2 °F 30.00 in North 3.0 mph 8.0 mph 88% 0.00 in
02:15 61.8 °F 58.2 °F 30.00 in WNW 3.0 mph 5.0 mph 88% 0.00 in
02:20 61.7 °F 58.1 °F 30.00 in NNW 2.0 mph 5.0 mph 88% 0.00 in
02:25 61.7 °F 58.1 °F 30.00 in NW 1.0 mph 3.0 mph 88% 0.00 in
02:30 61.7 °F 58.1 °F 30.00 in NNW 2.0 mph 5.0 mph 88% 0.00 in
02:35 61.6 °F 58.0 °F 30.00 in NNW 1.0 mph 5.0 mph 88% 0.00 in
02:40 61.6 °F 58.3 °F 30.00 in Calm     89% 0.00 in
02:45 61.6 °F 58.3 °F 30.00 in Calm     89% 0.00 in
02:50 61.6 °F 58.3 °F 30.00 in NNW 1.0 mph 3.0 mph 89% 0.00 in
02:55 61.6 °F 58.3 °F 30.00 in Calm   2.0 mph 89% 0.00 in
03:00 61.4 °F 58.1 °F 30.00 in Calm   3.0 mph 89% 0.00 in
03:05 61.5 °F 58.2 °F 30.00 in Calm   1.0 mph 89% 0.00 in
03:10 61.4 °F 58.4 °F 30.01 in Calm   2.0 mph 90% 0.00 in
03:15 61.5 °F 58.5 °F 30.01 in Calm   2.0 mph 90% 0.00 in
03:20 61.3 °F 58.3 °F 30.01 in NW 1.0 mph 5.0 mph 90% 0.00 in
03:25 61.3 °F 58.3 °F 30.01 in NW 1.0 mph 5.0 mph 90% 0.00 in
03:30 61.3 °F 58.3 °F 30.01 in North 1.0 mph 3.0 mph 90% 0.00 in
03:35 61.4 °F 58.4 °F 30.01 in Calm   3.0 mph 90% 0.00 in
03:40 61.2 °F 58.2 °F 30.01 in Calm     90% 0.00 in
03:45 61.3 °F 58.3 °F 30.01 in Calm     90% 0.00 in
03:50 61.3 °F 58.3 °F 30.02 in Calm     90% 0.00 in
03:55 61.3 °F 58.3 °F 30.02 in Calm   3.0 mph 90% 0.00 in
04:00 61.2 °F 58.2 °F 30.02 in Calm   4.0 mph 90% 0.00 in
04:05 61.1 °F 58.1 °F 30.02 in Calm   3.0 mph 90% 0.00 in
04:10 61.2 °F 58.2 °F 30.03 in Calm   1.0 mph 90% 0.00 in
04:15 61.1 °F 58.1 °F 30.03 in Calm   3.0 mph 90% 0.00 in
04:20 61.0 °F 58.0 °F 30.03 in NNW 1.0 mph 6.0 mph 90% 0.00 in
04:25 60.9 °F 57.9 °F 30.03 in NW 3.0 mph 12.0 mph 90% 0.00 in
04:30 60.9 °F 57.9 °F 30.04 in NW 2.0 mph 6.0 mph 90% 0.00 in
04:35 60.9 °F 57.9 °F 30.04 in NW 4.0 mph 6.0 mph 90% 0.00 in
04:40 60.8 °F 57.5 °F 30.04 in NNW 2.0 mph 5.0 mph 89% 0.00 in
04:45 60.8 °F 57.5 °F 30.04 in NNW 1.0 mph 5.0 mph 89% 0.00 in
04:50 60.8 °F 57.5 °F 30.05 in North 1.0 mph 6.0 mph 89% 0.00 in
04:55 60.8 °F 57.5 °F 30.05 in North 2.0 mph 5.0 mph 89% 0.00 in
05:00 60.8 °F 57.2 °F 30.05 in North 1.0 mph 7.0 mph 88% 0.00 in
05:05 60.8 °F 57.2 °F 30.05 in NNW 1.0 mph 3.0 mph 88% 0.00 in
05:10 60.9 °F 57.0 °F 30.05 in NW 1.0 mph 4.0 mph 87% 0.00 in
05:15 60.9 °F 57.0 °F 30.05 in NNW 1.0 mph 4.0 mph 87% 0.00 in
05:20 60.8 °F 56.9 °F 30.05 in NNW 2.0 mph 5.0 mph 87% 0.00 in
05:25 60.8 °F 56.6 °F 30.06 in Calm   6.0 mph 86% 0.00 in
05:30 60.7 °F 56.5 °F 30.06 in NW 3.0 mph 6.0 mph 86% 0.00 in
05:35 60.5 °F 56.6 °F 30.06 in NNW 2.0 mph 6.0 mph 87% 0.01 in
05:40 60.5 °F 56.6 °F 30.06 in NW 2.0 mph 5.0 mph 87% 0.01 in
05:45 60.4 °F 56.5 °F 30.06 in NW 1.0 mph 3.0 mph 87% 0.01 in
05:50 60.3 °F 56.4 °F 30.06 in NW 1.0 mph 3.0 mph 87% 0.01 in
05:55 60.3 °F 56.7 °F 30.06 in Calm   2.0 mph 88% 0.01 in
06:00 60.3 °F 56.7 °F 30.07 in NW 1.0 mph 2.0 mph 88% 0.01 in
06:05 60.2 °F 56.6 °F 30.07 in Calm   4.0 mph 88% 0.01 in
06:10 60.2 °F 56.6 °F 30.07 in Calm   3.0 mph 88% 0.01 in
06:15 60.1 °F 56.5 °F 30.08 in North 2.0 mph 8.0 mph 88% 0.01 in
06:20 59.8 °F 56.2 °F 30.08 in North 1.0 mph 6.0 mph 88% 0.01 in
06:25 59.7 °F 56.5 °F 30.08 in NNW 3.0 mph 7.0 mph 89% 0.01 in
06:30 59.6 °F 56.4 °F 30.09 in NW 1.0 mph 6.0 mph 89% 0.01 in
06:35 59.5 °F 56.6 °F 30.09 in NNW 2.0 mph 6.0 mph 90% 0.00 in
06:40 59.5 °F 56.6 °F 30.09 in NNW 1.0 mph 4.0 mph 90% 0.00 in
06:45 59.5 °F 56.6 °F 30.09 in NNW 1.0 mph 3.0 mph 90% 0.00 in
06:50 59.4 °F 56.5 °F 30.09 in Calm   3.0 mph 90% 0.01 in
06:55 59.4 °F 56.5 °F 30.08 in NNW 1.0 mph 3.0 mph 90% 0.01 in
07:00 59.6 °F 57.0 °F 30.09 in NNW 2.0 mph 2.0 mph 91% 0.01 in
07:05 59.7 °F 57.1 °F 30.09 in Calm   2.0 mph 91% 0.01 in
07:10 59.8 °F 57.2 °F 30.09 in Calm   2.0 mph 91% 0.01 in
07:15 59.8 °F 56.9 °F 30.09 in Calm   1.0 mph 90% 0.01 in
07:20 60.0 °F 57.1 °F 30.10 in Calm     90% 0.01 in
07:25 60.1 °F 57.2 °F 30.10 in Calm     90% 0.01 in
07:30 60.2 °F 57.3 °F 30.10 in Calm     90% 0.01 in
07:35 60.3 °F 57.4 °F 30.10 in Calm     90% 0.01 in
07:40 60.4 °F 57.5 °F 30.11 in Calm     90% 0.01 in
07:45 60.5 °F 57.2 °F 30.11 in Calm     89% 0.01 in
07:50 60.6 °F 57.3 °F 30.11 in Calm     89% 0.00 in
07:55 60.8 °F 57.5 °F 30.11 in Calm     89% 0.00 in
08:00 60.8 °F 57.5 °F 30.11 in Calm     89% 0.00 in
08:05 60.7 °F 57.1 °F 30.12 in Calm     88% 0.00 in
08:10 60.8 °F 57.5 °F 30.12 in Calm     89% 0.00 in
08:15 61.0 °F 57.7 °F 30.12 in Calm     89% 0.00 in
08:20 61.3 °F 58.0 °F 30.12 in Calm     89% 0.00 in
08:25 61.7 °F 58.4 °F 30.12 in NNW 1.0 mph 3.0 mph 89% 0.00 in
08:30 61.8 °F 57.9 °F 30.12 in NNW 1.0 mph 5.0 mph 87% 0.00 in
08:35 61.9 °F 58.0 °F 30.12 in ENE 2.0 mph 6.0 mph 87% 0.00 in
08:40 62.0 °F 57.8 °F 30.13 in North 1.0 mph 5.0 mph 86% 0.00 in
08:45 62.1 °F 57.9 °F 30.12 in NNW 1.0 mph 5.0 mph 86% 0.00 in
08:50 62.1 °F 57.9 °F 30.13 in NNW 3.0 mph 6.0 mph 86% 0.00 in
08:55 62.2 °F 58.0 °F 30.13 in North 2.0 mph 5.0 mph 86% 0.00 in
09:00 62.4 °F 57.8 °F 30.13 in NNW 2.0 mph 5.0 mph 85% 0.00 in
09:05 62.4 °F 57.8 °F 30.13 in NNW 2.0 mph 6.0 mph 85% 0.00 in
09:10 62.5 °F 57.6 °F 30.14 in North 3.0 mph 9.0 mph 84% 0.00 in
09:15 62.6 °F 57.7 °F 30.14 in North 3.0 mph 9.0 mph 84% 0.00 in
09:20 62.8 °F 57.6 °F 30.14 in North 3.0 mph 12.0 mph 83% 0.00 in
09:25 62.6 °F 56.7 °F 30.15 in NNE 4.0 mph 7.0 mph 81% 0.00 in
09:30 62.7 °F 56.4 °F 30.15 in North 3.0 mph 7.0 mph 80% 0.00 in
09:35 62.9 °F 56.6 °F 30.15 in North 3.0 mph 7.0 mph 80% 0.00 in
09:40 63.1 °F 57.2 °F 30.14 in North 3.0 mph 4.0 mph 81% 0.00 in
09:45 62.9 °F 56.3 °F 30.15 in NNE 2.0 mph 8.0 mph 79% 0.00 in
09:50 63.3 °F 57.0 °F 30.15 in NNW 1.0 mph 10.0 mph 80% 0.00 in
09:55 63.6 °F 57.0 °F 30.15 in NW 5.0 mph 7.0 mph 79% 0.00 in
10:00 63.6 °F 57.0 °F 30.15 in NNW 3.0 mph 7.0 mph 79% 0.00 in
10:05 63.5 °F 56.5 °F 30.15 in NNW 4.0 mph 12.0 mph 78% 0.00 in
10:10 63.0 °F 56.0 °F 30.15 in NW 2.0 mph 11.0 mph 78% 0.00 in
10:15 62.8 °F 56.2 °F 30.15 in NW 4.0 mph 9.0 mph 79% 0.00 in
10:20 63.0 °F 56.4 °F 30.15 in North 4.0 mph 7.0 mph 79% 0.00 in
10:25 63.4 °F 56.4 °F 30.15 in NNW 5.0 mph 5.0 mph 78% 0.00 in
10:30 63.8 °F 56.8 °F 30.16 in North 2.0 mph 6.0 mph 78% 0.00 in
10:35 63.9 °F 56.5 °F 30.16 in NNE 2.0 mph 6.0 mph 77% 0.00 in
10:40 64.1 °F 56.4 °F 30.15 in NE 3.0 mph 10.0 mph 76% 0.00 in
10:45 64.5 °F 56.8 °F 30.16 in North 2.0 mph 8.0 mph 76% 0.00 in
10:50 64.2 °F 55.7 °F 30.16 in NE 4.0 mph 7.0 mph 74% 0.00 in
10:55 64.1 °F 56.7 °F 30.16 in ENE 2.0 mph 4.0 mph 77% 0.00 in
11:00 64.2 °F 56.1 °F 30.17 in North 3.0 mph 6.0 mph 75% 0.00 in
11:05 63.8 °F 55.7 °F 30.17 in North 2.0 mph 8.0 mph 75% 0.00 in
11:10 63.2 °F 55.9 °F 30.17 in North 3.0 mph 8.0 mph 77% 0.00 in
11:15 63.2 °F 55.9 °F 30.17 in North 2.0 mph 5.0 mph 77% 0.00 in
11:20 63.2 °F 55.9 °F 30.17 in NNE 4.0 mph 5.0 mph 77% 0.00 in
11:25 63.1 °F 55.8 °F 30.17 in NNE 2.0 mph 5.0 mph 77% 0.00 in
11:30 63.4 °F 56.1 °F 30.17 in North 2.0 mph 7.0 mph 77% 0.00 in
11:35 63.7 °F 56.0 °F 30.17 in NNE 2.0 mph 7.0 mph 76% 0.00 in
11:40 64.1 °F 56.4 °F 30.17 in NE 3.0 mph 9.0 mph 76% 0.00 in
11:45 64.6 °F 56.5 °F 30.18 in NE 2.0 mph 9.0 mph 75% 0.00 in
11:50 64.7 °F 56.2 °F 30.18 in NE 2.0 mph 7.0 mph 74% 0.00 in
11:55 64.7 °F 56.2 °F 30.18 in NNE 2.0 mph 7.0 mph 74% 0.00 in
12:00 64.4 °F 56.3 °F 30.18 in NNE 2.0 mph 5.0 mph 75% 0.00 in
12:05 64.0 °F 55.9 °F 30.18 in NE 2.0 mph 8.0 mph 75% 0.00 in
12:10 63.8 °F 56.1 °F 30.18 in Calm   4.0 mph 76% 0.00 in
12:15 63.7 °F 56.0 °F 30.18 in NNW 4.0 mph 6.0 mph 76% 0.00 in
12:20 63.9 °F 56.2 °F 30.18 in NE 4.0 mph 5.0 mph 76% 0.00 in
12:25 64.2 °F 56.5 °F 30.18 in North 2.0 mph 6.0 mph 76% 0.00 in
12:30 64.6 °F 56.5 °F 30.19 in NNE 2.0 mph 6.0 mph 75% 0.00 in
12:35 65.0 °F 56.9 °F 30.18 in North 1.0 mph 6.0 mph 75% 0.00 in
12:40 64.3 °F 55.8 °F 30.19 in NNE 1.0 mph 6.0 mph 74% 0.00 in
12:45 63.9 °F 56.2 °F 30.19 in North 4.0 mph 5.0 mph 76% 0.00 in
12:50 64.0 °F 55.9 °F 30.19 in NNE 2.0 mph 4.0 mph 75% 0.00 in
12:55 64.3 °F 56.6 °F 30.19 in NNE 2.0 mph 9.0 mph 76% 0.00 in
13:00 64.3 °F 55.8 °F 30.19 in NNE 3.0 mph 9.0 mph 74% 0.00 in
13:05 64.2 °F 55.7 °F 30.19 in NE 1.0 mph 8.0 mph 74% 0.00 in
13:10 64.5 °F 56.4 °F 30.19 in NW 1.0 mph 5.0 mph 75% 0.00 in
13:15 64.5 °F 56.4 °F 30.20 in North 1.0 mph 9.0 mph 75% 0.00 in
13:20 64.1 °F 56.0 °F 30.20 in North 3.0 mph 9.0 mph 75% 0.00 in
13:25 63.9 °F 56.2 °F 30.20 in North 3.0 mph 8.0 mph 76% 0.00 in
13:30 63.8 °F 56.1 °F 30.20 in North 1.0 mph 8.0 mph 76% 0.00 in
13:35 64.1 °F 56.7 °F 30.20 in Calm   3.0 mph 77% 0.00 in
13:40 65.0 °F 56.5 °F 30.20 in ESE 2.0 mph 5.0 mph 74% 0.00 in
13:45 65.6 °F 57.1 °F 30.19 in NE 4.0 mph 6.0 mph 74% 0.00 in
13:50 66.6 °F 57.7 °F 30.20 in NNW 3.0 mph 7.0 mph 73% 0.00 in
13:55 67.4 °F 57.7 °F 30.20 in NNE 2.0 mph 8.0 mph 71% 0.00 in
14:00 66.6 °F 56.1 °F 30.20 in NNE 2.0 mph 8.0 mph 69% 0.00 in
14:05 66.4 °F 56.3 °F 30.20 in NE 3.0 mph 8.0 mph 70% 0.00 in
14:10 65.8 °F 56.5 °F 30.20 in Calm   4.0 mph 72% 0.00 in
14:15 65.4 °F 55.7 °F 30.20 in ENE 4.0 mph 9.0 mph 71% 0.00 in
14:20 65.2 °F 56.3 °F 30.20 in ENE 1.0 mph 4.0 mph 73% 0.00 in
14:25 65.4 °F 56.9 °F 30.20 in Calm   4.0 mph 74% 0.00 in
14:30 65.2 °F 56.3 °F 30.20 in NNW 3.0 mph 5.0 mph 73% 0.00 in
14:35 65.5 °F 57.0 °F 30.20 in Calm   6.0 mph 74% 0.00 in
14:40 66.8 °F 58.2 °F 30.20 in NNW 2.0 mph 6.0 mph 74% 0.00 in
14:45 67.7 °F 58.0 °F 30.20 in NNE 3.0 mph 7.0 mph 71% 0.00 in
14:50 68.0 °F 57.4 °F 30.20 in NNE 2.0 mph 7.0 mph 69% 0.00 in
14:55 68.1 °F 57.9 °F 30.20 in NNE 3.0 mph 7.0 mph 70% 0.00 in
15:00 68.0 °F 58.2 °F 30.20 in NE 3.0 mph 9.0 mph 71% 0.00 in
15:05 68.7 °F 58.5 °F 30.19 in ENE 9.0 mph 9.0 mph 70% 0.00 in
15:10 69.0 °F 58.4 °F 30.19 in North 4.0 mph 10.0 mph 69% 0.00 in
15:15 68.6 °F 57.6 °F 30.19 in NE 4.0 mph 10.0 mph 68% 0.00 in
15:20 68.4 °F 56.6 °F 30.20 in NE 5.0 mph 14.0 mph 66% 0.00 in
15:25 68.1 °F 56.7 °F 30.20 in NE 5.0 mph 11.0 mph 67% 0.00 in
15:30 68.2 °F 57.2 °F 30.19 in NE 4.0 mph 7.0 mph 68% 0.00 in
15:35 68.0 °F 56.6 °F 30.19 in NE 7.0 mph 8.0 mph 67% 0.00 in
15:40 67.7 °F 55.9 °F 30.20 in ENE 2.0 mph 8.0 mph 66% 0.00 in
15:45 67.9 °F 56.9 °F 30.20 in ENE 4.0 mph 9.0 mph 68% 0.00 in
15:50 68.1 °F 57.9 °F 30.20 in NE 3.0 mph 9.0 mph 70% 0.00 in
15:55 68.7 °F 58.1 °F 30.20 in NNE 2.0 mph 7.0 mph 69% 0.00 in
16:00 68.6 °F 57.6 °F 30.20 in ESE 3.0 mph 10.0 mph 68% 0.00 in
16:05 68.4 °F 56.6 °F 30.20 in ENE 7.0 mph 14.0 mph 66% 0.00 in
16:10 69.0 °F 58.0 °F 30.19 in North 3.0 mph 7.0 mph 68% 0.00 in
16:15 68.9 °F 57.5 °F 30.19 in NNE 3.0 mph 11.0 mph 67% 0.00 in
16:20 68.7 °F 57.7 °F 30.20 in NE 4.0 mph 11.0 mph 68% 0.00 in
16:25 68.3 °F 57.3 °F 30.20 in NE 4.0 mph 11.0 mph 68% 0.00 in
16:30 68.3 °F 57.3 °F 30.20 in Calm   7.0 mph 68% 0.00 in
16:35 68.6 °F 57.2 °F 30.20 in ENE 8.0 mph 11.0 mph 67% 0.00 in
16:40 69.0 °F 57.6 °F 30.20 in NE 3.0 mph 11.0 mph 67% 0.00 in
16:45 69.5 °F 57.6 °F 30.20 in ENE 5.0 mph 7.0 mph 66% 0.00 in
16:50 68.8 °F 57.0 °F 30.20 in NE 5.0 mph 9.0 mph 66% 0.00 in
16:55 69.0 °F 58.0 °F 30.20 in ENE 5.0 mph 9.0 mph 68% 0.00 in
17:00 69.7 °F 57.4 °F 30.20 in NE 3.0 mph 8.0 mph 65% 0.00 in
17:05 70.4 °F 58.5 °F 30.20 in ENE 4.0 mph 8.0 mph 66% 0.00 in
17:10 70.1 °F 57.8 °F 30.20 in ENE 3.0 mph 8.0 mph 65% 0.00 in
17:15 70.2 °F 57.9 °F 30.21 in NE 2.0 mph 6.0 mph 65% 0.00 in
17:20 69.3 °F 57.5 °F 30.21 in NE 2.0 mph 9.0 mph 66% 0.00 in
17:25 68.9 °F 57.1 °F 30.21 in NE 3.0 mph 9.0 mph 66% 0.00 in
17:30 70.3 °F 58.8 °F 30.21 in ENE 7.0 mph 7.0 mph 67% 0.00 in
17:35 69.5 °F 56.8 °F 30.21 in NNW 3.0 mph 7.0 mph 64% 0.00 in
17:40 69.1 °F 56.8 °F 30.21 in North 1.0 mph 4.0 mph 65% 0.00 in
17:45 68.6 °F 56.8 °F 30.20 in ENE 4.0 mph 5.0 mph 66% 0.00 in
17:50 68.7 °F 56.9 °F 30.20 in NE 2.0 mph 8.0 mph 66% 0.00 in
17:55 68.7 °F 56.5 °F 30.20 in ENE 3.0 mph 7.0 mph 65% 0.00 in
18:00 68.5 °F 56.7 °F 30.21 in ENE 3.0 mph 7.0 mph 66% 0.00 in
18:05 68.6 °F 57.2 °F 30.20 in ENE 3.0 mph 6.0 mph 67% 0.00 in
18:10 68.6 °F 57.6 °F 30.20 in ENE 2.0 mph 5.0 mph 68% 0.00 in
18:15 68.5 °F 56.7 °F 30.20 in ENE 2.0 mph 5.0 mph 66% 0.00 in
18:20 68.3 °F 56.5 °F 30.20 in ENE 2.0 mph 7.0 mph 66% 0.00 in
18:25 68.9 °F 57.1 °F 30.20 in ENE 1.0 mph 5.0 mph 66% 0.00 in
18:30 68.9 °F 57.1 °F 30.21 in ENE 1.0 mph 5.0 mph 66% 0.00 in
18:35 68.6 °F 56.8 °F 30.21 in NE 2.0 mph 7.0 mph 66% 0.00 in
18:40 68.3 °F 56.5 °F 30.21 in East 2.0 mph 7.0 mph 66% 0.00 in
18:45 68.6 °F 57.2 °F 30.21 in NE 3.0 mph 5.0 mph 67% 0.00 in
18:50 68.8 °F 57.0 °F 30.21 in ENE 3.0 mph 9.0 mph 66% 0.00 in
18:55 68.8 °F 57.0 °F 30.20 in Calm   4.0 mph 66% 0.00 in
19:00 69.0 °F 56.7 °F 30.21 in NE 2.0 mph 5.0 mph 65% 0.00 in
19:05 69.1 °F 56.8 °F 30.21 in ENE 1.0 mph 6.0 mph 65% 0.00 in
19:10 68.9 °F 57.5 °F 30.21 in ENE 2.0 mph 6.0 mph 67% 0.00 in
19:15 68.7 °F 56.5 °F 30.21 in Calm     65% 0.00 in
19:20 68.7 °F 56.9 °F 30.21 in Calm     66% 0.00 in
19:25 68.5 °F 56.7 °F 30.21 in East 3.0 mph 5.0 mph 66% 0.00 in
19:30 68.3 °F 56.5 °F 30.21 in East 2.0 mph 5.0 mph 66% 0.00 in
19:35 68.3 °F 57.3 °F 30.21 in ESE 1.0 mph 3.0 mph 68% 0.00 in
19:40 68.2 °F 57.2 °F 30.21 in Calm   2.0 mph 68% 0.00 in
19:45 68.1 °F 57.1 °F 30.22 in Calm   2.0 mph 68% 0.00 in
19:50 67.9 °F 56.5 °F 30.22 in South 2.0 mph 3.0 mph 67% 0.00 in
19:55 67.7 °F 56.3 °F 30.21 in East 2.0 mph 3.0 mph 67% 0.00 in
20:00 67.7 °F 56.3 °F 30.21 in East 1.0 mph 3.0 mph 67% 0.00 in
20:05 67.5 °F 56.2 °F 30.21 in ENE 2.0 mph 2.0 mph 67% 0.00 in
20:10 67.4 °F 56.5 °F 30.21 in Calm   3.0 mph 68% 0.00 in
20:15 67.3 °F 56.4 °F 30.21 in Calm   3.0 mph 68% 0.00 in
20:20 67.1 °F 56.6 °F 30.21 in Calm     69% 0.00 in
20:25 66.8 °F 56.3 °F 30.22 in Calm   3.0 mph 69% 0.00 in
20:30 66.5 °F 56.4 °F 30.22 in Calm   3.0 mph 70% 0.00 in
20:35 66.4 °F 56.3 °F 30.22 in Calm     70% 0.00 in
20:40 66.1 °F 56.0 °F 30.22 in Calm   2.0 mph 70% 0.00 in
20:45 65.9 °F 56.2 °F 30.22 in Calm   2.0 mph 71% 0.00 in
20:50 65.7 °F 56.0 °F 30.21 in Calm     71% 0.00 in
20:55 65.4 °F 56.1 °F 30.21 in Calm     72% 0.00 in
21:00 65.2 °F 55.9 °F 30.21 in Calm     72% 0.00 in
21:05 65.0 °F 56.1 °F 30.21 in Calm     73% 0.00 in
21:10 64.8 °F 55.9 °F 30.22 in Calm     73% 0.00 in
21:15 64.7 °F 55.8 °F 30.22 in Calm     73% 0.00 in
21:20 64.5 °F 56.0 °F 30.22 in Calm     74% 0.00 in
21:25 64.3 °F 56.2 °F 30.22 in Calm     75% 0.00 in
21:30 64.1 °F 56.4 °F 30.22 in Calm     76% 0.00 in
21:35 63.9 °F 56.2 °F 30.22 in Calm     76% 0.00 in
21:40 63.8 °F 56.4 °F 30.22 in Calm   3.0 mph 77% 0.00 in
21:45 63.6 °F 56.3 °F 30.22 in Calm   3.0 mph 77% 0.00 in
21:50 63.4 °F 56.4 °F 30.22 in Calm   2.0 mph 78% 0.00 in
21:55 63.2 °F 56.2 °F 30.23 in Calm   2.0 mph 78% 0.00 in
22:00 63.2 °F 56.2 °F 30.23 in Calm   2.0 mph 78% 0.00 in
22:05 63.1 °F 56.1 °F 30.23 in Calm     78% 0.00 in
22:10 62.8 °F 55.8 °F 30.23 in Calm     78% 0.00 in
22:15 62.2 °F 55.6 °F 30.23 in Calm     79% 0.00 in
22:20 61.7 °F 55.5 °F 30.23 in Calm     80% 0.00 in
22:25 61.4 °F 55.5 °F 30.22 in Calm     81% 0.00 in
22:30 61.6 °F 56.0 °F 30.23 in Calm     82% 0.00 in
22:35 61.2 °F 55.7 °F 30.23 in Calm     82% 0.00 in
22:40 60.8 °F 55.3 °F 30.22 in Calm     82% 0.00 in
22:45 60.7 °F 55.5 °F 30.22 in Calm     83% 0.00 in
22:50 60.4 °F 55.2 °F 30.22 in Calm     83% 0.00 in
22:55 60.2 °F 55.3 °F 30.23 in Calm     84% 0.00 in
23:00 60.0 °F 55.2 °F 30.23 in Calm     84% 0.00 in
23:05 59.9 °F 55.1 °F 30.22 in Calm     84% 0.00 in
23:10 59.9 °F 55.4 °F 30.22 in Calm     85% 0.00 in
23:15 59.7 °F 55.2 °F 30.22 in Calm     85% 0.00 in
23:20 59.6 °F 55.1 °F 30.22 in Calm     85% 0.00 in
23:25 59.4 °F 54.9 °F 30.22 in Calm     85% 0.00 in
23:30 59.1 °F 54.6 °F 30.22 in Calm     85% 0.00 in
23:35 58.9 °F 54.7 °F 30.22 in Calm     86% 0.00 in
23:40 58.8 °F 54.9 °F 30.22 in Calm     87% 0.00 in
23:45 58.7 °F 54.5 °F 30.23 in Calm     86% 0.00 in
23:50 58.6 °F 54.7 °F 30.23 in Calm     87% 0.00 in
23:55 58.4 °F 54.5 °F 30.23 in Calm     87% 0.00 in
Buffalo, New York, USA
Compliments of Weather Underground - 2.5 mb